QPF
0.00 0.00 0.00 0.00 0.00 0.00 0.00 0.00 0.00 0.00 0.00 0.00 0.00 0.00 0.00 0.00 0.00 0.00 0.00 0.00 0.00 0.00 0.00 0.00 0.00 0.00 0.00 0.00 0.00 0.00 0.00 0.00 0.00 0.00 0.00 0.00 0.00 0.00 0.00 0.00 0.00 0.00 0.00 0.00 0.00
0.00 0.00 0.00 0.00 0.00 0.00 0.00 0.00 0.00 0.00 0.00 0.00 0.00 0.00 0.00 0.00 0.00 0.00 0.00 0.00 0.00 0.00 0.00 0.00 0.00 0.00 0.00 0.00 0.00 0.00 0.00 0.00 0.00 0.00 0.00 0.00 0.00 0.00 0.00 0.00 0.00 0.00 0.00 0.00 0.00
0.00 0.00 0.00 0.00 0.00 0.00 0.00 0.00 0.00 0.00 0.00 0.00 0.00 0.00 0.00 0.00 0.00 0.00 0.00 0.00 0.00 0.00 0.00 0.00 0.00 0.00 0.00 0.00 0.00 0.00 0.00 0.00 0.00 0.00 0.00 0.00 0.00 0.00 0.00 0.00 0.00 0.00 0.00 0.00 0.00
0.00 0.00 0.00 0.00 0.00 0.00 0.00 0.00 0.00 0.00 0.00 0.00 0.00 0.00 0.00 0.00 0.00 0.00 0.00 0.00 0.00 0.00 0.00 0.00 0.00 0.00 0.00 0.00 0.00 0.00 0.00 0.00 0.00 0.00 0.00 0.00 0.00 0.00 0.00 0.00 0.00 0.00 0.00 0.00 0.00
0.00 0.00 0.00 0.00 0.00 0.00 0.00 0.00 0.00 0.00 0.00 0.00 0.00 0.00 0.00 0.00 0.00 0.00 0.00 0.00 0.00 0.00 0.00 0.00 0.00 0.00 0.00 0.00 0.00 0.00 0.00 0.00 0.00 0.00 0.00 0.00 0.00 0.00 0.00 0.00 0.00 0.00 0.00 0.00 0.00
0.00 0.00 0.00 0.00 0.00 0.00 0.00 0.00 0.00 0.00 0.00 0.00 0.00 0.00 0.00 0.00 0.00 0.00 0.00 0.00 0.00 0.00 0.00 0.00 0.00 0.00 0.00 0.00 0.00 0.00 0.00 0.00 0.00 0.00 0.00 0.00 0.00 0.00 0.00 0.00 0.00 0.00 0.00 0.00 0.00
0.00 0.00 0.00 0.00 0.00 0.00 0.00 0.00 0.00 0.00 0.00 0.00 0.00 0.00 0.00 0.00 0.00 0.00 0.00 0.00 0.00 0.00 0.00 0.00 0.00 0.00 0.00 0.00 0.00 0.00 0.00 0.00 0.00 0.00 0.00 0.00 0.00 0.00 0.00 0.00 0.00 0.00 0.00 0.00 0.00
0.00 0.00 0.00 0.00 0.00 0.00 0.00 0.00 0.00 0.00 0.00 0.00 0.00 0.00 0.00 0.00 0.00 0.00 0.00 0.00 0.00 0.00 0.00 0.00 0.00 0.00 0.00 0.00 0.00 0.00 0.00 0.00 0.00 0.00 0.00 0.00 0.00 0.00 0.00 0.00 0.00 0.00 0.00 0.00 0.00
0.00 0.00 0.00 0.00 0.00 0.00 0.00 0.00 0.00 0.00 0.00 0.00 0.00 0.00 0.00 0.00 0.00 0.00 0.00 0.00 0.00 0.00 0.00 0.00 0.00 0.00 0.00 0.00 0.00 0.00 0.00 0.00 0.00 0.00 0.00 0.00 0.00 0.00 0.00 0.00 0.00 0.00 0.00 0.00 0.00
0.00 0.00 0.00 0.00 0.00 0.00 0.00 0.00 0.00 0.00 0.00 0.00 0.00 0.00 0.00 0.00 0.00 0.00 0.00 0.00 0.00 0.00 0.00 0.00 0.00 0.00 0.00 0.00 0.00 0.00 0.00 0.00 0.00 0.00 0.00 0.00 0.00 0.00 0.00 0.00 0.00 0.00 0.00 0.00 0.00
0.00 0.00 0.00 0.00 0.00 0.00 0.00 0.00 0.00 0.00 0.00 0.00 0.00 0.00 0.00 0.00 0.00 0.00 0.00 0.00 0.00 0.00 0.00 0.00 0.00 0.00 0.00 0.00 0.00 0.00 0.00 0.00 0.00 0.00 0.00 0.00 0.00 0.00 0.00 0.00 0.00 0.00 0.00 0.00 0.00
0.00 0.00 0.00 0.00 0.00 0.00 0.00 0.00 0.00 0.00 0.00 0.00 0.00 0.00 0.00 0.00 0.00 0.00 0.00 0.00 0.00 0.00 0.00 0.00 0.00 0.00 0.00 0.00 0.00 0.00 0.00 0.00 0.00 0.00 0.00 0.00 0.00 0.00 0.00 0.00 0.00 0.00 0.00 0.00 0.00
0.00 0.00 0.00 0.00 0.00 0.00 0.00 0.00 0.00 0.00 0.00 0.00 0.00 0.00 0.00 0.00 0.00 0.00 0.00 0.00 0.00 0.00 0.00 0.00 0.00 0.00 0.00 0.00 0.00 0.00 0.00 0.00 0.00 0.00 0.00 0.00 0.00 0.00 0.00 0.00 0.00 0.00 0.00 0.00 0.00
0.00 0.00 0.00 0.00 0.00 0.00 0.00 0.00 0.00 0.00 0.00 0.00 0.00 0.00 0.00 0.00 0.00 0.00 0.00 0.00 0.00 0.00 0.00 0.00 0.00 0.00 0.00 0.00 0.00 0.00 0.00 0.00 0.00 0.00 0.01 0.00 0.00 0.00 0.00 0.00 0.00 0.00 0.00 0.00 0.00
0.00 0.00 0.00 0.00 0.00 0.00 0.00 0.00 0.00 0.00 0.00 0.00 0.00 0.00 0.00 0.00 0.00 0.00 0.00 0.00 0.00 0.00 0.00 0.00 0.00 0.00 0.00 0.00 0.00 0.00 0.00 0.00 0.00 0.00 0.00 0.00 0.00 0.00 0.00 0.00 0.00 0.00 0.00 0.00 0.00
0.00 0.00 0.00 0.00 0.00 0.00 0.00 0.00 0.00 0.00 0.00 0.00 0.00 0.00 0.00 0.00 0.00 0.00 0.00 0.00 0.00 0.00 0.00 0.00 0.00 0.00 0.00 0.00 0.00 0.00 0.00 0.00 0.00 0.00 0.02 0.00 0.00 0.00 0.00 0.00 0.00 0.00 0.00 0.00 0.00
0.00 0.00 0.00 0.00 0.00 0.00 0.00 0.00 0.00 0.00 0.00 0.00 0.00 0.00 0.00 0.00 0.00 0.00 0.00 0.00 0.00 0.00 0.00 0.00 0.00 0.00 0.00 0.00 0.00 0.00 0.00 0.00 0.01 0.05 0.03 0.00 0.00 0.00 0.00 0.00 0.00 0.00 0.00 0.00 0.00
0.00 0.00 0.00 0.00 0.00 0.00 0.00 0.00 0.00 0.00 0.00 0.00 0.00 0.00 0.00 0.00 0.00 0.00 0.00 0.00 0.00 0.00 0.00 0.00 0.00 0.00 0.00 0.00 0.00 0.00 0.00 0.00 0.02 0.03 0.00 0.00 0.00 0.00 0.00 0.00 0.00 0.00 0.00 0.00 0.00
0.00 0.00 0.00 0.00 0.00 0.00 0.00 0.00 0.00 0.00 0.00 0.00 0.00 0.00 0.00 0.00 0.00 0.00 0.00 0.00 0.00 0.00 0.00 0.00 0.00 0.00 0.00 0.00 0.00 0.00 0.00 0.00 0.00 0.00 0.00 0.00 0.00 0.00 0.00 0.00 0.00 0.00 0.00 0.00 0.00
0.00 0.00 0.00 0.00 0.00 0.00 0.00 0.00 0.00 0.00 0.00 0.00 0.00 0.00 0.00 0.00 0.00 0.00 0.00 0.00 0.00 0.00 0.00 0.00 0.00 0.00 0.00 0.00 0.00 0.00 0.00 0.00 0.00 0.01 0.03 0.00 0.00 0.00 0.00 0.00 0.00 0.00 0.00 0.00 0.00
0.00 0.00 0.00 0.00 0.00 0.00 0.00 0.00 0.00 0.00 0.00 0.00 0.00 0.00 0.00 0.00 0.00 0.00 0.00 0.00 0.00 0.00 0.00 0.00 0.00 0.00 0.00 0.00 0.00 0.00 0.00 0.00 0.00 0.00 0.00 0.00 0.00 0.00 0.00 0.00 0.00 0.00 0.00 0.00 0.00
0.00 0.00 0.00 0.00 0.00 0.00 0.00 0.00 0.00 0.00 0.00 0.00 0.00 0.00 0.00 0.00 0.00 0.00 0.00 0.00 0.00 0.00 0.00 0.00 0.00 0.00 0.00 0.00 0.00 0.00 0.00 0.00 0.00 0.00 0.00 0.00 0.00 0.00 0.00 0.00 0.00 0.00 0.00 0.00 0.00
0.00 0.00 0.00 0.00 0.00 0.00 0.00 0.00 0.00 0.00 0.00 0.00 0.00 0.00 0.00 0.00 0.00 0.00 0.00 0.00 0.00 0.00 0.00 0.00 0.00 0.00 0.00 0.00 0.00 0.00 0.00 0.00 0.00 0.00 0.00 0.00 0.00 0.00 0.00 0.00 0.00 0.00 0.00 0.00 0.00
0.00 0.00 0.00 0.00 0.00 0.00 0.00 0.00 0.00 0.00 0.00 0.00 0.00 0.00 0.00 0.00 0.00 0.00 0.00 0.00 0.00 0.00 0.00 0.00 0.00 0.00 0.00 0.00 0.00 0.00 0.00 0.00 0.00 0.00 0.00 0.00 0.00 0.00 0.00 0.00 0.00 0.00 0.00 0.00 0.00
0.00 0.00 0.00 0.00 0.00 0.00 0.00 0.00 0.00 0.00 0.00 0.00 0.00 0.00 0.00 0.00 0.00 0.00 0.00 0.00 0.00 0.00 0.00 0.00 0.00 0.00 0.00 0.00 0.00 0.00 0.00 0.00 0.00 0.00 0.00 0.00 0.00 0.00 0.00 0.00 0.00 0.00 0.00 0.00 0.00
0.00 0.00 0.00 0.00 0.00 0.00 0.00 0.00 0.00 0.00 0.00 0.00 0.00 0.00 0.00 0.00 0.00 0.00 0.00 0.00 0.00 0.00 0.00 0.00 0.00 0.00 0.00 0.00 0.00 0.00 0.00 0.00 0.00 0.00 0.00 0.00 0.00 0.00 0.00 0.00 0.00 0.00 0.00 0.00 0.00
0.00 0.00 0.00 0.00 0.00 0.00 0.00 0.00 0.00 0.00 0.00 0.00 0.00 0.00 0.00 0.00 0.00 0.00 0.00 0.00 0.00 0.00 0.00 0.00 0.00 0.00 0.00 0.00 0.00 0.00 0.00 0.00 0.00 0.00 0.00 0.00 0.00 0.00 0.00 0.00 0.00 0.00 0.00 0.00 0.00
MSLP
1017.10 1016.79 1016.49 1016.21 1015.88 1015.44 1015.24 1014.73 1014.41 1014.14 1013.91 1013.49 1013.09 1012.81 1012.48 1012.21 1011.64 1010.96 1008.69 1007.25 1007.87 1009.06 1009.21 1008.98 1008.95 1008.78 1008.98 1007.82 1007.58 1007.16 1005.40 1005.14 1005.48 1005.48 1006.83 1007.57 1007.94 1008.69 1009.14 1009.26 1009.91 1010.02 1010.16 1011.51 1012.59
1017.06 1016.71 1016.36 1016.11 1015.79 1015.39 1015.08 1014.75 1014.23 1014.05 1013.66 1013.37 1012.94 1012.63 1012.31 1012.04 1010.56 1008.60 1007.39 1007.57 1007.99 1008.78 1008.50 1008.41 1008.21 1008.42 1007.58 1007.16 1006.84 1006.00 1004.84 1005.33 1005.66 1005.84 1006.35 1007.27 1007.82 1008.51 1008.98 1009.41 1010.11 1010.84 1011.63 1012.27 1012.68
1017.04 1016.66 1016.28 1015.84 1015.60 1015.22 1014.85 1014.55 1014.10 1013.75 1013.53 1013.21 1012.77 1012.44 1012.10 1011.67 1009.30 1006.25 1007.07 1007.61 1008.13 1008.48 1008.01 1007.94 1007.87 1007.82 1006.91 1006.73 1006.25 1005.86 1005.00 1005.53 1005.89 1005.98 1006.34 1007.12 1007.85 1008.31 1008.51 1008.87 1009.67 1010.42 1011.31 1011.97 1012.35
1017.11 1016.61 1016.10 1015.68 1015.26 1015.00 1014.63 1014.35 1013.96 1013.45 1013.36 1012.92 1012.59 1012.25 1011.82 1010.64 1007.67 1006.85 1007.45 1007.82 1008.35 1007.70 1007.91 1008.02 1007.72 1007.32 1006.44 1006.20 1005.91 1005.50 1005.65 1005.77 1006.05 1006.53 1006.74 1007.30 1007.98 1008.26 1008.65 1008.74 1009.55 1010.47 1011.30 1011.90 1012.16
1017.09 1016.54 1016.05 1015.55 1015.11 1014.77 1014.33 1014.05 1013.74 1013.33 1012.97 1012.72 1012.37 1012.02 1011.19 1008.97 1006.40 1007.23 1007.83 1008.13 1008.18 1007.55 1007.21 1007.27 1006.98 1006.63 1005.96 1005.95 1005.95 1005.70 1005.64 1006.03 1006.38 1006.63 1007.00 1007.71 1007.99 1008.24 1008.89 1009.32 1009.89 1010.64 1011.28 1011.61 1011.93
1017.10 1016.49 1015.93 1015.35 1014.84 1014.55 1014.15 1013.62 1013.43 1013.07 1012.59 1012.46 1012.12 1011.93 1010.19 1007.38 1006.60 1006.86 1007.21 1007.87 1007.05 1006.95 1006.75 1006.88 1006.37 1006.50 1006.17 1005.90 1005.84 1005.79 1005.90 1006.18 1006.58 1006.77 1007.34 1007.56 1008.04 1008.10 1009.00 1009.50 1010.02 1010.67 1011.07 1011.45 1011.88
1016.85 1016.33 1015.77 1015.20 1014.55 1014.11 1013.87 1013.34 1012.90 1012.54 1012.16 1011.97 1011.84 1011.21 1008.89 1006.52 1006.67 1006.56 1006.95 1006.96 1006.80 1006.51 1006.24 1006.54 1006.99 1006.60 1005.88 1005.86 1006.39 1005.89 1006.14 1006.54 1006.82 1007.16 1007.49 1007.67 1008.08 1007.76 1008.47 1009.15 1009.74 1010.28 1010.80 1011.32 1011.87
1016.80 1016.15 1015.50 1014.84 1014.33 1013.80 1013.47 1013.04 1012.38 1011.87 1011.52 1011.50 1011.55 1010.36 1006.97 1006.84 1006.42 1006.55 1006.62 1006.64 1006.93 1006.60 1006.51 1006.70 1006.30 1006.08 1006.03 1006.24 1006.48 1006.09 1006.16 1006.25 1007.15 1007.46 1007.91 1007.89 1007.01 1007.74 1008.36 1008.85 1009.12 1009.67 1010.43 1011.20 1011.83
1016.66 1016.05 1015.36 1014.72 1014.11 1013.57 1013.10 1012.61 1011.92 1011.24 1011.15 1011.26 1010.67 1009.06 1006.37 1007.36 1006.48 1006.16 1006.15 1006.03 1006.57 1006.72 1006.60 1006.70 1006.26 1005.53 1006.15 1005.54 1005.48 1006.28 1005.69 1006.18 1007.04 1007.54 1007.95 1007.85 1006.77 1007.32 1008.09 1008.43 1008.70 1009.27 1010.04 1010.81 1011.66
1016.42 1015.77 1015.05 1014.40 1013.87 1013.34 1012.68 1012.12 1011.59 1011.37 1010.97 1010.47 1009.51 1008.38 1006.41 1005.55 1005.66 1005.82 1005.95 1005.82 1006.02 1006.17 1006.24 1006.11 1005.50 1005.48 1005.41 1005.86 1005.27 1005.95 1006.37 1007.03 1006.81 1007.16 1007.61 1007.47 1007.15 1007.18 1007.59 1007.79 1008.18 1008.76 1009.43 1010.25 1011.00
1015.98 1015.33 1014.74 1014.14 1013.57 1013.15 1012.36 1010.91 1010.89 1009.92 1008.83 1006.56 1006.19 1005.84 1005.47 1005.56 1005.91 1005.68 1005.76 1005.83 1005.76 1005.75 1005.14 1005.16 1004.58 1004.06 1004.85 1004.76 1005.36 1006.03 1006.49 1005.99 1006.71 1007.52 1007.80 1007.79 1007.17 1007.00 1007.11 1007.26 1007.54 1008.16 1008.75 1009.57 1010.41
1015.58 1014.99 1014.43 1013.77 1013.28 1012.74 1011.90 1009.24 1008.82 1008.81 1006.81 1006.00 1006.11 1006.04 1005.78 1005.43 1004.90 1005.08 1005.47 1005.19 1005.24 1004.55 1004.53 1004.68 1003.79 1003.64 1004.38 1005.13 1004.99 1005.18 1005.79 1006.33 1007.49 1008.18 1008.18 1007.85 1007.53 1007.02 1006.82 1006.56 1006.59 1007.23 1008.40 1009.34 1009.91
1015.36 1014.76 1014.20 1013.48 1012.81 1012.02 1010.08 1008.72 1008.84 1008.43 1006.43 1005.30 1005.18 1004.91 1004.84 1005.26 1003.95 1004.35 1004.74 1004.10 1003.99 1003.75 1003.74 1003.14 1002.94 1003.39 1004.14 1004.33 1004.43 1004.46 1005.13 1005.70 1006.54 1007.65 1007.55 1007.21 1006.96 1006.03 1005.52 1005.94 1006.44 1006.45 1007.57 1009.07 1009.06
1015.09 1014.47 1013.95 1013.28 1012.71 1010.41 1008.91 1008.80 1008.69 1008.42 1005.62 1004.31 1004.42 1003.94 1004.53 1004.09 1003.77 1003.70 1004.40 1003.52 1003.20 1002.91 1003.17 1002.92 1003.33 1003.61 1003.65 1003.66 1004.38 1004.10 1005.43 1005.92 1006.51 1006.95 1006.38 1006.52 1004.80 1003.62 1003.69 1004.30 1005.21 1005.62 1006.54 1007.67 1008.84
1014.58 1014.05 1013.73 1013.67 1011.74 1009.51 1008.78 1008.64 1008.43 1007.84 1003.99 1003.36 1003.68 1004.20 1003.44 1003.18 1002.52 1003.61 1004.14 1003.54 1002.74 1002.58 1002.92 1002.55 1003.08 1003.39 1003.18 1003.17 1003.96 1004.31 1005.39 1005.66 1006.02 1006.14 1005.74 1004.95 1004.57 1002.16 1002.50 1002.78 1003.52 1004.61 1005.29 1006.35 1007.52
1013.93 1013.49 1013.18 1012.47 1011.49 1009.24 1009.05 1008.67 1008.09 1005.98 1002.43 1002.49 1002.90 1003.09 1003.11 1002.64 1002.26 1003.10 1003.52 1004.05 1002.71 1002.52 1002.79 1002.07 1003.02 1002.91 1002.90 1003.83 1004.35 1005.19 1005.44 1005.61 1005.74 1005.51 1004.53 1003.91 1003.53 1001.02 1001.13 1001.70 1002.19 1003.00 1004.39 1005.35 1006.23
1013.19 1012.65 1012.53 1010.84 1008.86 1009.30 1008.95 1007.74 1005.73 1003.31 1002.36 1001.97 1001.64 1002.03 1001.66 1001.70 1001.76 1002.17 1002.53 1002.61 1002.10 1002.03 1001.78 1002.13 1002.62 1003.40 1003.78 1004.13 1004.86 1004.83 1004.25 1003.66 1003.71 1004.00 1003.02 1003.45 1002.87 1001.10 1001.08 1001.51 1001.20 1002.21 1003.44 1004.50 1005.65
1012.50 1011.99 1011.41 1010.11 1009.53 1009.31 1008.11 1006.33 1003.80 1002.18 1001.56 1001.91 1001.48 1001.36 1000.94 1000.80 1001.05 1001.35 1001.51 1001.46 1001.68 1001.37 1000.89 1001.18 1001.82 1002.87 1003.20 1003.11 1003.26 1004.00 1003.51 1003.29 1002.90 1002.67 1002.02 1002.42 1001.12 1000.04 1000.98 1001.30 1001.50 1001.70 1002.78 1003.84 1005.08
1011.75 1010.35 1009.50 1009.06 1009.22 1009.09 1007.06 1004.60 1002.30 1002.31 1002.42 1001.77 1001.52 1000.73 1000.52 1000.61 1000.58 1000.88 1000.71 1000.50 1000.60 1000.84 1000.67 1000.52 1000.97 1001.87 1002.69 1003.10 1003.35 1003.49 1003.73 1003.57 1002.85 1002.17 1001.70 1000.69 1000.33 999.92 1000.39 1000.92 1001.29 1001.60 1002.04 1003.38 1004.46
1011.02 1009.15 1008.57 1009.06 1008.92 1008.03 1006.15 1003.79 1003.31 1003.42 1003.05 1002.38 1000.81 1000.37 999.87 1000.12 1000.44 1000.41 1000.19 1000.19 1000.07 1000.81 1000.86 1000.66 1000.91 1001.31 1002.47 1003.57 1003.89 1003.43 1003.18 1002.86 1002.35 1001.50 1000.96 999.81 999.78 999.31 999.93 1000.13 1000.83 1001.23 1001.86 1002.83 1004.15
1010.50 1007.97 1008.57 1008.73 1008.54 1006.80 1004.73 1003.64 1003.90 1003.93 1003.89 1002.71 1001.47 1000.66 999.83 999.62 999.93 999.87 999.86 1001.23 1000.75 1000.92 1001.16 1000.99 1001.12 1000.81 1001.95 1002.44 1001.83 1002.98 1002.81 1002.80 1002.10 1001.45 1000.65 999.39 999.03 999.74 999.95 1000.03 1000.34 1000.91 1001.66 1002.65 1003.77
1009.85 1007.38 1008.25 1008.39 1006.95 1005.84 1004.49 1004.53 1005.04 1003.98 1004.15 1003.39 1002.82 1001.73 1000.68 1000.20 999.98 999.82 999.90 1000.60 1002.42 1001.41 1001.35 1001.19 1000.62 1000.31 1000.91 1001.07 1001.15 1001.16 1001.18 1001.28 1000.80 1000.76 1000.75 1000.64 999.34 999.39 999.71 999.76 1000.00 1000.52 1001.51 1002.64 1003.65
1009.89 1008.14 1007.95 1007.69 1005.62 1005.03 1005.21 1004.88 1004.98 1004.52 1004.36 1003.78 1003.02 1002.90 1002.39 1001.28 1000.96 1000.78 1001.13 1002.69 1002.88 1002.34 1001.60 1001.19 1000.74 999.85 999.74 1000.84 1001.51 1000.79 1001.14 1000.85 1000.38 1000.36 1000.18 999.85 999.03 999.36 999.65 999.85 1000.04 1000.52 1001.82 1002.96 1003.77
1010.71 1007.95 1007.49 1007.25 1006.88 1005.61 1004.96 1004.77 1004.96 1005.57 1005.13 1004.84 1003.99 1003.64 1002.81 1002.15 1002.02 1001.92 1002.16 1003.19 1003.47 1003.11 1003.27 1002.28 1000.57 999.59 998.68 998.89 999.35 1000.18 1000.17 1000.48 1000.05 999.55 999.38 999.27 998.82 998.66 999.14 999.54 1000.13 1000.83 1001.94 1002.85 1003.55
1011.18 1009.60 1009.79 1007.07 1006.86 1006.29 1006.10 1005.65 1005.14 1005.31 1005.56 1005.35 1004.59 1004.00 1003.16 1002.54 1002.58 1002.57 1003.01 1003.38 1003.81 1003.83 1003.32 1002.19 1000.50 999.74 999.14 998.98 998.78 998.79 999.26 999.69 999.65 999.26 998.87 998.33 998.15 998.46 998.45 998.99 999.79 1000.61 1001.70 1002.70 1003.44
1011.93 1011.15 1010.34 1009.10 1008.40 1007.49 1006.69 1006.03 1005.83 1006.15 1006.15 1005.48 1005.18 1005.05 1004.70 1003.79 1004.10 1003.57 1003.65 1003.54 1003.16 1003.48 1002.74 1002.07 1000.70 1000.21 999.66 999.13 998.85 998.56 998.56 998.47 998.39 998.70 998.69 998.50 998.32 998.14 998.53 998.75 999.23 1000.06 1001.28 1002.04 1002.82
1013.64 1013.04 1011.86 1010.08 1008.65 1007.97 1006.83 1006.85 1006.82 1007.40 1007.45 1007.14 1006.53 1006.07 1005.73 1006.64 1006.58 1006.01 1005.52 1005.00 1004.54 1004.04 1002.92 1002.10 1000.86 1000.60 999.27 998.76 998.64 997.99 997.98 997.84 997.69 997.77 998.12 997.77 997.74 997.86 998.33 998.76 998.87 999.31 1000.51 1001.36 1002.03
Thickness
5768 5771 5774 5777 5781 5785 5788 5792 5795 5798 5800 5804 5808 5811 5813 5815 5819 5825 5831 5850 5846 5837 5836 5837 5834 5832 5829 5827 5831 5832 5812 5800 5804 5808 5800 5816 5806 5814 5816 5805 5805 5811 5811 5806 5806
5767 5771 5774 5777 5780 5784 5788 5792 5796 5797 5802 5805 5809 5812 5815 5817 5829 5836 5852 5851 5847 5841 5838 5830 5825 5827 5825 5827 5828 5824 5816 5808 5825 5826 5815 5816 5812 5809 5802 5798 5795 5796 5802 5803 5803
5765 5769 5773 5777 5780 5784 5788 5792 5796 5799 5801 5805 5810 5813 5816 5819 5830 5851 5856 5851 5846 5844 5845 5841 5836 5828 5822 5830 5828 5826 5813 5825 5824 5830 5829 5815 5810 5818 5806 5794 5800 5794 5797 5801 5802
5762 5767 5772 5776 5780 5783 5787 5791 5795 5800 5801 5805 5809 5813 5817 5827 5815 5853 5853 5849 5845 5849 5842 5832 5828 5817 5818 5813 5833 5816 5827 5827 5826 5827 5823 5811 5815 5807 5808 5808 5813 5808 5804 5801 5799
5757 5763 5768 5773 5778 5781 5785 5789 5794 5799 5803 5805 5808 5813 5823 5827 5841 5853 5849 5847 5846 5848 5838 5829 5824 5823 5816 5823 5827 5819 5825 5827 5828 5827 5822 5818 5807 5806 5803 5813 5814 5807 5803 5800 5801
5752 5758 5763 5769 5774 5778 5782 5787 5792 5797 5802 5805 5808 5811 5824 5820 5856 5854 5852 5847 5851 5847 5842 5839 5834 5835 5825 5825 5822 5830 5827 5825 5825 5822 5818 5809 5805 5810 5805 5813 5806 5802 5799 5800 5799
5749 5754 5759 5764 5771 5776 5779 5784 5790 5796 5802 5805 5807 5813 5823 5836 5853 5855 5852 5849 5854 5851 5839 5846 5841 5831 5837 5822 5832 5831 5812 5817 5817 5818 5809 5815 5792 5798 5812 5811 5802 5800 5801 5800 5798
5744 5750 5756 5762 5767 5773 5777 5782 5789 5795 5800 5803 5805 5814 5825 5847 5852 5850 5852 5846 5851 5854 5848 5850 5852 5840 5833 5837 5823 5814 5816 5793 5808 5812 5810 5807 5785 5804 5812 5803 5799 5801 5798 5795 5793
5739 5746 5752 5759 5764 5769 5775 5781 5788 5795 5797 5798 5806 5812 5821 5840 5835 5849 5853 5839 5842 5844 5847 5847 5844 5834 5829 5817 5810 5807 5793 5795 5794 5812 5802 5800 5794 5808 5812 5805 5798 5798 5796 5794 5789
5736 5743 5750 5756 5761 5766 5773 5780 5785 5788 5793 5797 5805 5800 5822 5825 5837 5844 5851 5848 5835 5835 5828 5828 5829 5812 5818 5795 5778 5786 5785 5780 5788 5806 5805 5798 5796 5807 5810 5806 5801 5800 5799 5795 5792
5733 5741 5747 5754 5759 5764 5773 5786 5787 5788 5796 5812 5814 5811 5819 5833 5837 5832 5842 5834 5833 5825 5808 5823 5810 5805 5805 5821 5817 5804 5789 5799 5805 5806 5798 5791 5796 5801 5808 5807 5803 5801 5801 5798 5794
5730 5737 5743 5751 5757 5763 5771 5789 5790 5791 5793 5811 5807 5806 5817 5827 5813 5823 5840 5819 5814 5806 5819 5809 5804 5828 5828 5817 5817 5813 5798 5793 5790 5790 5791 5781 5778 5799 5803 5807 5811 5807 5799 5793 5798
5727 5733 5739 5747 5755 5764 5780 5787 5791 5793 5789 5800 5806 5805 5810 5816 5815 5815 5829 5829 5816 5810 5812 5810 5822 5833 5820 5815 5811 5815 5804 5801 5795 5791 5796 5789 5775 5791 5810 5812 5810 5816 5810 5795 5801
5724 5730 5735 5744 5754 5772 5779 5785 5787 5789 5781 5792 5794 5805 5808 5816 5802 5832 5830 5827 5820 5811 5816 5816 5825 5815 5816 5813 5813 5803 5813 5805 5793 5784 5768 5795 5765 5809 5817 5813 5811 5814 5812 5805 5799
5722 5728 5732 5735 5754 5768 5776 5781 5785 5781 5759 5794 5792 5817 5816 5805 5818 5810 5830 5823 5809 5813 5815 5808 5809 5807 5809 5819 5822 5809 5814 5806 5800 5790 5790 5795 5779 5816 5826 5812 5815 5816 5818 5816 5811
5723 5728 5732 5739 5748 5767 5771 5776 5776 5759 5758 5783 5796 5791 5790 5802 5809 5810 5810 5818 5829 5813 5815 5822 5830 5825 5824 5819 5819 5815 5804 5802 5800 5795 5774 5798 5791 5815 5821 5821 5827 5831 5824 5822 5819
5724 5730 5733 5745 5762 5762 5767 5769 5756 5756 5791 5778 5787 5794 5797 5792 5797 5801 5795 5794 5792 5780 5786 5805 5807 5815 5820 5799 5808 5807 5805 5784 5778 5771 5778 5805 5792 5814 5832 5834 5842 5832 5827 5827 5824
5727 5732 5738 5747 5753 5757 5764 5758 5744 5777 5781 5790 5791 5792 5785 5799 5797 5797 5794 5789 5807 5807 5801 5786 5774 5802 5818 5812 5805 5801 5809 5785 5758 5770 5794 5812 5800 5828 5841 5843 5845 5845 5838 5833 5826
5729 5742 5746 5751 5751 5753 5756 5746 5768 5771 5776 5778 5782 5779 5781 5792 5796 5792 5794 5798 5810 5815 5791 5791 5789 5819 5817 5818 5817 5799 5787 5814 5797 5814 5797 5819 5828 5848 5846 5839 5840 5839 5841 5832 5830
5733 5745 5746 5746 5749 5752 5749 5748 5761 5769 5772 5775 5773 5787 5778 5784 5782 5787 5792 5808 5809 5814 5823 5807 5779 5812 5809 5808 5806 5805 5818 5794 5801 5774 5768 5815 5811 5817 5829 5833 5837 5837 5837 5837 5834
5733 5743 5742 5744 5746 5746 5742 5756 5756 5766 5764 5766 5774 5778 5790 5788 5791 5790 5795 5792 5809 5807 5815 5810 5794 5798 5803 5790 5800 5793 5793 5799 5807 5809 5785 5799 5807 5840 5833 5839 5838 5842 5843 5841 5837
5731 5736 5740 5741 5735 5741 5745 5748 5731 5758 5762 5764 5768 5774 5782 5789 5786 5791 5792 5799 5791 5807 5790 5808 5801 5783 5787 5816 5825 5819 5812 5814 5797 5787 5807 5797 5809 5853 5847 5849 5852 5850 5847 5845 5842
5721 5728 5737 5736 5730 5735 5737 5741 5742 5747 5749 5755 5759 5762 5768 5774 5767 5782 5785 5782 5784 5790 5793 5806 5788 5778 5788 5795 5803 5801 5808 5817 5826 5821 5799 5791 5807 5852 5849 5847 5852 5850 5844 5840 5839
5709 5719 5724 5725 5724 5728 5730 5733 5732 5735 5737 5743 5750 5756 5760 5762 5771 5765 5770 5771 5776 5781 5769 5787 5796 5791 5786 5797 5812 5791 5807 5813 5817 5805 5807 5810 5820 5840 5841 5841 5844 5846 5843 5841 5839
5697 5701 5693 5713 5712 5717 5717 5722 5724 5723 5732 5736 5739 5746 5755 5754 5758 5757 5764 5764 5767 5764 5773 5786 5779 5797 5805 5810 5815 5813 5809 5808 5803 5818 5807 5826 5828 5835 5848 5847 5846 5848 5845 5839 5837
5678 5680 5686 5691 5692 5696 5691 5710 5712 5712 5715 5724 5728 5733 5740 5746 5742 5746 5756 5760 5764 5768 5773 5784 5775 5784 5781 5802 5805 5799 5812 5817 5822 5821 5821 5825 5820 5852 5857 5860 5853 5850 5843 5841 5841
5652 5655 5661 5659 5683 5685 5696 5698 5698 5697 5698 5705 5714 5721 5725 5717 5723 5733 5740 5747 5751 5751 5762 5770 5776 5769 5769 5797 5794 5781 5802 5813 5822 5831 5827 5815 5834 5851 5845 5847 5852 5854 5849 5846 5849